| time (UTC) | temp F | wind direction | speed MPH | gust MPH | rain 1hr in | rain 24hr in | rain mn in | humidity % | barometer mb |
| 20260510153059 | 69 | 116 | 0.0 | 3.0 | 0.01 | 0.17 | 0.01 | 71 | 1014.2 |
| 20260510151525 | 66 | 240 | 1.0 | 5.0 | 0.01 | 0.17 | 0.01 | 82 | 1014.4 |
| 20260510150118 | 63 | 128 | 0.0 | 4.0 | 0.01 | 0.17 | 0.01 | 90 | 1014.3 |
| 20260510144544 | 62 | 217 | 0.0 | 3.0 | 0.00 | 0.16 | 0.00 | 96 | 1014.3 |
| 20260510143012 | 60 | 203 | 0.0 | 0.0 | 0.00 | 0.16 | 0.00 | 96 | 1014.3 |
| 20260510141546 | 59 | 145 | 0.0 | 1.0 | 0.00 | 0.16 | 0.00 | 97 | 1014.3 |
| 20260510140013 | 59 | 164 | 0.0 | 2.0 | 0.00 | 0.16 | 0.00 | 97 | 1014.4 |
| 20260510134558 | 58 | 126 | 0.0 | 1.0 | 0.00 | 0.16 | 0.00 | 97 | 1014.3 |
| 20260510133033 | 56 | 146 | 0.0 | 0.0 | 0.00 | 0.16 | 0.00 | 97 | 1014.2 |
| 20260510131606 | 55 | 141 | 0.0 | 0.0 | 0.00 | 0.16 | 0.00 | 97 | 1014.2 |
| 20260510130032 | 55 | 149 | 0.0 | 0.0 | 0.00 | 0.16 | 0.00 | 97 | 1014.3 |
| 20260510124501 | 53 | 134 | 0.0 | 0.0 | 0.00 | 0.16 | 0.00 | 97 | 1014.2 |
| 20260510123047 | 51 | 352 | 0.0 | 0.0 | 0.00 | 0.16 | 0.00 | 97 | 1014.2 |
| 20260510121517 | 50 | 352 | 0.0 | 0.0 | 0.00 | 0.16 | 0.00 | 96 | 1014.0 |
| 20260510120104 | 50 | 352 | 0.0 | 0.0 | 0.00 | 0.16 | 0.00 | 96 | 1013.8 |
| 20260510114529 | 50 | 352 | 0.0 | 0.0 | 0.00 | 0.16 | 0.00 | 96 | 1013.6 |
| 20260510113125 | 49 | 351 | 0.0 | 0.0 | 0.00 | 0.16 | 0.00 | 96 | 1013.4 |
| 20260510111554 | 49 | 352 | 0.0 | 0.0 | 0.00 | 0.16 | 0.00 | 96 | 1013.2 |
| 20260510110006 | 49 | 0.0 | 0.0 | 0.00 | 0.16 | 0.00 | 96 | 1013.1 | |
| 20260510104556 | 49 | 0.0 | 0.0 | 0.00 | 0.16 | 0.00 | 96 | 1013.0 | |
| 20260510103019 | 49 | 0.0 | 0.0 | 0.00 | 0.16 | 0.00 | 96 | 1013.2 | |
| 20260510101602 | 49 | 0.0 | 0.0 | 0.00 | 0.16 | 0.00 | 96 | 1012.9 | |
| 20260510100031 | 49 | 351 | 0.0 | 0.0 | 0.00 | 0.16 | 0.00 | 96 | 1012.8 |
| 20260510094608 | 49 | 352 | 0.0 | 0.0 | 0.00 | 0.16 | 0.00 | 96 | 1012.4 |
| 20260510093050 | 49 | 352 | 0.0 | 0.0 | 0.00 | 0.16 | 0.00 | 96 | 1012.5 |
| 20260510091504 | 49 | 351 | 0.0 | 0.0 | 0.00 | 0.16 | 0.00 | 96 | 1012.2 |
| 20260510090050 | 49 | 352 | 0.0 | 0.0 | 0.00 | 0.16 | 0.00 | 96 | 1012.3 |
| 20260510084520 | 49 | 352 | 0.0 | 0.0 | 0.00 | 0.16 | 0.00 | 96 | 1012.3 |
| 20260510083102 | 49 | 112 | 0.0 | 0.0 | 0.00 | 0.16 | 0.00 | 96 | 1012.5 |
| 20260510081539 | 49 | 124 | 0.0 | 0.0 | 0.00 | 0.16 | 0.00 | 95 | 1012.4 |
| 20260510080110 | 49 | 124 | 0.0 | 2.0 | 0.00 | 0.16 | 0.00 | 96 | 1012.4 |
| 20260510074538 | 48 | 133 | 0.0 | 4.0 | 0.00 | 0.16 | 0.00 | 95 | 1012.0 |
| 20260510073013 | 48 | 152 | 0.0 | 0.0 | 0.00 | 0.16 | 0.00 | 95 | 1011.7 |
| 20260510071554 | 48 | 152 | 0.0 | 0.0 | 0.00 | 0.16 | 0.00 | 95 | 1011.8 |
| 20260510070025 | 49 | 152 | 0.0 | 0.0 | 0.00 | 0.16 | 0.00 | 94 | 1011.7 |
| 20260510064606 | 49 | 152 | 0.0 | 0.0 | 0.00 | 0.16 | 0.00 | 95 | 1011.8 |
| 20260510063040 | 50 | 152 | 0.0 | 0.0 | 0.00 | 0.16 | 0.00 | 95 | 1011.6 |
| 20260510061500 | 50 | 152 | 0.0 | 0.0 | 0.00 | 0.16 | 0.00 | 95 | 1011.4 |
| 20260510060055 | 50 | 106 | 0.0 | 0.0 | 0.00 | 0.16 | 0.00 | 95 | 1011.4 |
| 20260510054525 | 50 | 106 | 0.0 | 0.0 | 0.00 | 0.16 | 0.00 | 95 | 1011.5 |
| 20260510053124 | 50 | 131 | 0.0 | 0.0 | 0.00 | 0.16 | 0.00 | 95 | 1011.6 |
| 20260510051542 | 50 | 131 | 0.0 | 0.0 | 0.00 | 0.16 | 0.00 | 94 | 1011.7 |
| 20260510050007 | 50 | 130 | 0.0 | 0.0 | 0.00 | 0.16 | 0.00 | 94 | 1011.8 |
| 20260510044607 | 50 | 129 | 0.0 | 0.0 | 0.00 | 0.16 | 0.00 | 94 | 1011.9 |
| 20260510043030 | 50 | 129 | 0.0 | 0.0 | 0.00 | 0.16 | 0.00 | 94 | 1012.0 |
| 20260510041610 | 50 | 130 | 0.0 | 0.0 | 0.00 | 0.16 | 0.00 | 94 | 1011.9 |
| 20260510040045 | 50 | 129 | 0.0 | 0.0 | 0.00 | 0.16 | 0.00 | 94 | 1012.0 |
| 20260510034508 | 51 | 130 | 0.0 | 0.0 | 0.00 | 0.16 | 0.16 | 94 | 1012.2 |
| 20260510033058 | 51 | 130 | 0.0 | 0.0 | 0.00 | 0.16 | 0.16 | 94 | 1012.0 |
| 20260510031518 | 51 | 129 | 0.0 | 0.0 | 0.00 | 0.16 | 0.16 | 94 | 1011.8 |
| 20260510030113 | 51 | 129 | 0.0 | 0.0 | 0.00 | 0.16 | 0.16 | 94 | 1011.7 |
| 20260510024537 | 52 | 130 | 0.0 | 0.0 | 0.00 | 0.16 | 0.16 | 94 | 1011.7 |
| 20260510023007 | 52 | 134 | 0.0 | 0.0 | 0.00 | 0.16 | 0.16 | 94 | 1011.8 |
| 20260510021550 | 52 | 134 | 0.0 | 0.0 | 0.00 | 0.16 | 0.16 | 93 | 1011.6 |
| 20260510020022 | 52 | 73 | 0.0 | 0.0 | 0.00 | 0.16 | 0.16 | 94 | 1011.5 |
| 20260510014607 | 53 | 73 | 0.0 | 0.0 | 0.00 | 0.16 | 0.16 | 93 | 1011.3 |
| 20260510013034 | 53 | 74 | 0.0 | 0.0 | 0.00 | 0.16 | 0.16 | 93 | 1011.1 |
| 20260510011613 | 53 | 74 | 0.0 | 0.0 | 0.00 | 0.16 | 0.16 | 93 | 1011.1 |
| 20260510010037 | 54 | 74 | 0.0 | 0.0 | 0.00 | 0.16 | 0.16 | 93 | 1011.1 |
| 20260510004505 | 54 | 74 | 0.0 | 0.0 | 0.00 | 0.16 | 0.16 | 93 | 1010.9 |
| 20260510003051 | 54 | 73 | 0.0 | 0.0 | 0.00 | 0.16 | 0.16 | 94 | 1010.7 |
| 20260510001511 | 55 | 74 | 0.0 | 0.0 | 0.00 | 0.16 | 0.16 | 93 | 1010.7 |
| 20260509234536 | 55 | 73 | 0.0 | 0.0 | 0.00 | 0.16 | 0.16 | 94 | 1010.5 |
| 20260509233106 | 56 | 74 | 0.0 | 0.0 | 0.00 | 0.16 | 0.16 | 94 | 1010.6 |
| 20260509231533 | 56 | 74 | 0.0 | 0.0 | 0.00 | 0.16 | 0.16 | 94 | 1010.6 |
| 20260509230016 | 56 | 65 | 0.0 | 0.0 | 0.00 | 0.16 | 0.16 | 94 | 1010.6 |
| 20260509224541 | 56 | 65 | 0.0 | 0.0 | 0.00 | 0.16 | 0.16 | 94 | 1010.5 |
| 20260509223013 | 56 | 65 | 0.0 | 0.0 | 0.00 | 0.16 | 0.16 | 94 | 1010.5 |
| 20260509221549 | 56 | 65 | 0.0 | 0.0 | 0.00 | 0.16 | 0.16 | 94 | 1010.4 |
| 20260509220019 | 56 | 65 | 0.0 | 0.0 | 0.00 | 0.16 | 0.16 | 93 | 1010.5 |
| 20260509214556 | 56 | 65 | 0.0 | 0.0 | 0.00 | 0.16 | 0.16 | 93 | 1010.5 |
| 20260509213031 | 56 | 65 | 0.0 | 0.0 | 0.00 | 0.16 | 0.16 | 94 | 1010.4 |
| 20260509211607 | 55 | 65 | 0.0 | 0.0 | 0.00 | 0.16 | 0.16 | 93 | 1010.6 |
| 20260509210037 | 56 | 65 | 0.0 | 0.0 | 0.00 | 0.16 | 0.16 | 94 | 1010.7 |
| 20260509204510 | 56 | 65 | 0.0 | 0.0 | 0.00 | 0.16 | 0.16 | 94 | 1010.6 |
| 20260509203049 | 56 | 57 | 0.0 | 0.0 | 0.00 | 0.16 | 0.16 | 94 | 1010.7 |
| 20260509201521 | 55 | 70 | 0.0 | 0.0 | 0.02 | 0.16 | 0.16 | 95 | 1010.9 |
| 20260509200111 | 54 | 110 | 0.0 | 0.0 | 0.03 | 0.16 | 0.16 | 95 | 1010.5 |
| 20260509194525 | 54 | 4 | 0.0 | 0.0 | 0.05 | 0.16 | 0.16 | 95 | 1010.8 |
| 20260509193115 | 54 | 85 | 0.0 | 0.0 | 0.06 | 0.16 | 0.16 | 95 | 1011.2 |
| 20260509191529 | 53 | 84 | 0.0 | 0.0 | 0.06 | 0.14 | 0.14 | 94 | 1011.6 |
| 20260509190002 | 53 | 84 | 0.0 | 0.0 | 0.05 | 0.13 | 0.13 | 94 | 1011.8 |
| 20260509184548 | 53 | 84 | 0.0 | 0.0 | 0.04 | 0.11 | 0.11 | 93 | 1012.0 |
| 20260509183013 | 54 | 84 | 0.0 | 0.0 | 0.03 | 0.10 | 0.10 | 93 | 1012.3 |
| 20260509181554 | 54 | 195 | 0.0 | 0.0 | 0.02 | 0.08 | 0.08 | 94 | 1012.4 |
| 20260509180021 | 54 | 196 | 0.0 | 0.0 | 0.03 | 0.08 | 0.08 | 94 | 1012.4 |
| 20260509173043 | 54 | 200 | 0.0 | 0.0 | 0.02 | 0.07 | 0.07 | 94 | 1012.4 |
| 20260509171501 | 54 | 226 | 0.0 | 0.0 | 0.02 | 0.06 | 0.06 | 93 | 1012.4 |
| 20260509170041 | 54 | 229 | 0.0 | 0.0 | 0.01 | 0.05 | 0.05 | 93 | 1012.2 |
| 20260509164512 | 54 | 43 | 0.0 | 0.0 | 0.03 | 0.05 | 0.05 | 92 | 1012.3 |
| 20260509163102 | 54 | 36 | 0.0 | 0.0 | 0.05 | 0.05 | 0.05 | 90 | 1012.1 |
| 20260509161529 | 56 | 125 | 0.0 | 0.0 | 0.04 | 0.04 | 0.04 | 89 | 1012.4 |
| 20260509160105 | 56 | 183 | 0.0 | 1.0 | 0.04 | 0.04 | 0.04 | 88 | 1012.6 |
| 20260509154536 | 57 | 289 | 0.0 | 4.0 | 0.02 | 0.02 | 0.02 | 89 | 1012.8 |